TimeEST,TemperatureF,Dew PointF,Humidity,Sea Level PressureIn,VisibilityMPH,Wind Direction,Wind SpeedMPH,Gust SpeedMPH,PrecipitationIn,Events,Conditions,WindDirDegrees,DateUTC
12:15 AM,32.4,28.8,87,30.18,10.0,East,9.2,-,N/A,,Overcast,90,2012-11-30 05:15:00
12:35 AM,32.4,28.9,87,30.18,10.0,East,10.4,-,N/A,,Overcast,80,2012-11-30 05:35:00
12:55 AM,32.0,28.4,87,30.18,10.0,East,9.2,-,N/A,,Overcast,90,2012-11-30 05:55:00
1:15 AM,31.5,27.9,87,30.18,10.0,East,10.4,18.4,N/A,,Overcast,90,2012-11-30 06:15:00
1:36 AM,31.5,28.2,88,30.19,10.0,East,8.1,-,N/A,,Overcast,90,2012-11-30 06:36:00
1:55 AM,31.5,28.2,88,30.19,10.0,East,11.5,18.4,N/A,,Overcast,100,2012-11-30 06:55:00
2:15 AM,31.5,28.2,88,30.19,10.0,East,10.4,16.1,N/A,,Overcast,90,2012-11-30 07:15:00
2:36 AM,31.5,28.4,88,30.20,10.0,East,10.4,-,N/A,,Overcast,90,2012-11-30 07:36:00
2:55 AM,31.5,28.4,88,30.19,10.0,East,16.1,-,N/A,,Overcast,100,2012-11-30 07:55:00
3:15 AM,31.5,28.4,88,30.19,10.0,East,13.8,17.3,N/A,,Overcast,90,2012-11-30 08:15:00
3:36 AM,31.5,28.4,88,30.19,10.0,East,12.7,17.3,N/A,,Overcast,90,2012-11-30 08:36:00
3:55 AM,31.5,28.4,88,30.19,10.0,East,13.8,-,N/A,,Overcast,90,2012-11-30 08:55:00
4:15 AM,31.5,28.8,90,30.18,7.0,East,12.7,21.9,N/A,,Overcast,90,2012-11-30 09:15:00
4:36 AM,31.5,28.8,90,30.18,7.0,East,10.4,-,N/A,,Overcast,90,2012-11-30 09:36:00
4:55 AM,31.5,28.8,90,30.18,7.0,East,12.7,-,N/A,,Overcast,80,2012-11-30 09:55:00
5:15 AM,31.5,28.9,90,30.18,7.0,East,17.3,20.7,N/A,,Overcast,80,2012-11-30 10:15:00
5:36 AM,31.5,28.9,90,30.18,7.0,East,13.8,-,N/A,,Overcast,90,2012-11-30 10:36:00
5:55 AM,31.5,28.9,90,30.18,7.0,East,11.5,21.9,N/A,,Overcast,80,2012-11-30 10:55:00
6:15 AM,31.5,28.9,90,30.18,10.0,East,12.7,19.6,N/A,,Overcast,80,2012-11-30 11:15:00
6:36 AM,31.5,28.9,90,30.18,10.0,East,13.8,20.7,N/A,,Overcast,80,2012-11-30 11:36:00
6:55 AM,31.5,28.9,90,30.19,10.0,East,15.0,21.9,N/A,,Overcast,80,2012-11-30 11:55:00
7:15 AM,30.6,28.0,90,30.19,7.0,East,15.0,-,N/A,,Overcast,90,2012-11-30 12:15:00
7:35 AM,30.7,28.2,90,30.20,10.0,East,11.5,19.6,N/A,,Overcast,90,2012-11-30 12:35:00
7:55 AM,29.1,26.4,90,30.19,10.0,East,15.0,21.9,N/A,,Overcast,90,2012-11-30 12:55:00
8:15 AM,29.5,26.8,90,30.20,10.0,East,13.8,19.6,N/A,,Overcast,100,2012-11-30 13:15:00
8:35 AM,29.3,26.4,89,30.19,10.0,East,17.3,24.2,N/A,,Overcast,90,2012-11-30 13:35:00
8:55 AM,29.3,26.1,88,30.20,10.0,East,13.8,21.9,N/A,,Overcast,90,2012-11-30 13:55:00
9:15 AM,30.6,27.1,87,30.20,10.0,East,15.0,-,N/A,,Overcast,90,2012-11-30 14:15:00
9:35 AM,31.1,27.5,87,30.21,10.0,East,11.5,17.3,N/A,,Overcast,90,2012-11-30 14:35:00
9:55 AM,31.5,27.5,85,30.22,10.0,East,12.7,24.2,N/A,,Overcast,90,2012-11-30 14:55:00
10:15 AM,31.5,27.5,85,30.22,10.0,East,12.7,18.4,N/A,,Overcast,90,2012-11-30 15:15:00
10:35 AM,31.5,27.5,85,30.23,10.0,East,10.4,-,N/A,,Overcast,90,2012-11-30 15:35:00
10:55 AM,31.5,27.5,85,30.23,10.0,East,11.5,-,N/A,,Overcast,90,2012-11-30 15:55:00
11:15 AM,31.5,27.5,85,30.22,10.0,East,10.4,-,N/A,,Overcast,80,2012-11-30 16:15:00
11:35 AM,31.5,27.5,85,30.21,10.0,East,11.5,18.4,N/A,,Overcast,80,2012-11-30 16:35:00
11:55 AM,31.5,27.5,85,30.21,10.0,East,12.7,16.1,N/A,,Overcast,80,2012-11-30 16:55:00
12:15 PM,31.5,27.5,85,30.20,10.0,ENE,12.7,20.7,N/A,,Overcast,70,2012-11-30 17:15:00
12:35 PM,31.5,27.5,85,30.20,10.0,ENE,11.5,-,N/A,,Overcast,70,2012-11-30 17:35:00
12:55 PM,31.5,27.5,85,30.19,10.0,East,10.4,18.4,N/A,,Overcast,80,2012-11-30 17:55:00
1:15 PM,31.5,27.5,85,30.19,10.0,ENE,15.0,-,N/A,,Overcast,70,2012-11-30 18:15:00
1:35 PM,31.5,27.9,87,30.19,10.0,ENE,13.8,18.4,N/A,,Overcast,70,2012-11-30 18:35:00
1:55 PM,31.5,28.0,87,30.18,10.0,East,17.3,20.7,N/A,,Overcast,90,2012-11-30 18:55:00
2:16 PM,31.5,28.2,88,30.17,10.0,East,17.3,21.9,N/A,,Overcast,90,2012-11-30 19:16:00
2:35 PM,31.5,28.2,88,30.18,10.0,East,15.0,-,N/A,,Overcast,90,2012-11-30 19:35:00
2:55 PM,31.5,28.2,88,30.18,10.0,East,12.7,18.4,N/A,,Overcast,80,2012-11-30 19:55:00
3:16 PM,31.5,28.2,88,30.18,10.0,ENE,13.8,18.4,N/A,,Overcast,60,2012-11-30 20:16:00
3:35 PM,31.5,28.2,88,30.18,10.0,East,13.8,-,N/A,,Overcast,80,2012-11-30 20:35:00
3:55 PM,31.5,28.2,88,30.19,10.0,ENE,11.5,18.4,N/A,,Overcast,70,2012-11-30 20:55:00
4:15 PM,31.5,28.4,88,30.18,10.0,East,12.7,-,N/A,,Overcast,80,2012-11-30 21:15:00
4:35 PM,31.5,28.4,88,30.19,10.0,East,11.5,-,N/A,,Overcast,80,2012-11-30 21:35:00
4:55 PM,31.5,28.4,88,30.21,5.0,East,10.4,-,N/A,,Overcast,90,2012-11-30 21:55:00
5:15 PM,31.5,28.8,90,30.20,5.0,East,11.5,-,N/A,,Overcast,80,2012-11-30 22:15:00
5:35 PM,31.5,28.9,90,30.21,3.0,ENE,8.1,-,N/A,,Overcast,70,2012-11-30 22:35:00
5:55 PM,31.5,28.9,90,30.21,2.5,East,6.9,-,N/A,,Overcast,80,2012-11-30 22:55:00
6:15 PM,31.5,29.1,91,30.21,1.8,East,10.4,-,N/A,,Overcast,80,2012-11-30 23:15:00
6:35 PM,31.5,29.1,91,30.22,1.5,East,10.4,-,N/A,,Overcast,80,2012-11-30 23:35:00
6:55 PM,31.5,29.1,91,30.24,1.5,East,6.9,-,N/A,,Overcast,90,2012-11-30 23:55:00
7:15 PM,31.8,29.3,90,30.24,1.2,ENE,6.9,-,N/A,,Overcast,70,2012-12-01 00:15:00
7:35 PM,32.0,30.0,92,30.23,1.0,ENE,8.1,-,N/A,,Overcast,70,2012-12-01 00:35:00
7:55 PM,32.0,30.2,93,30.23,1.0,East,9.2,-,N/A,,Overcast,80,2012-12-01 00:55:00
8:15 PM,32.2,30.6,94,30.23,1.0,East,10.4,-,N/A,,Overcast,80,2012-12-01 01:15:00
8:35 PM,32.2,30.6,94,30.21,1.0,East,10.4,-,N/A,,Overcast,90,2012-12-01 01:35:00
8:55 PM,32.4,30.6,93,30.21,0.8,East,9.2,16.1,N/A,,Overcast,100,2012-12-01 01:55:00
9:15 PM,32.4,30.6,93,30.21,0.8,East,9.2,-,N/A,,Overcast,90,2012-12-01 02:15:00
9:35 PM,32.4,30.6,93,30.20,0.8,East,12.7,-,N/A,,Overcast,100,2012-12-01 02:35:00
9:56 PM,32.4,30.6,93,30.22,0.8,East,9.2,-,N/A,,Overcast,90,2012-12-01 02:56:00
10:15 PM,32.4,30.7,94,30.21,0.5,East,10.4,-,N/A,Fog,Fog,80,2012-12-01 03:15:00
10:35 PM,32.4,30.7,94,30.19,0.5,ESE,15.0,-,N/A,Fog,Fog,110,2012-12-01 03:35:00
10:56 PM,32.4,30.7,94,30.20,0.5,East,11.5,20.7,N/A,Fog,Fog,100,2012-12-01 03:56:00
11:15 PM,32.4,30.7,94,30.19,0.8,East,12.7,17.3,N/A,,Overcast,100,2012-12-01 04:15:00
11:35 PM,32.4,30.7,94,30.20,1.0,ESE,8.1,16.1,N/A,,Overcast,110,2012-12-01 04:35:00